Flag for Norway Weather past 2 weeks in Vestby, Norway

Now
45 °F

Partly cloudy.


Feels Like: 38 °F
Forecast: 36 / 52 °F
Wind: 13 mph from Southwest

Location: Rygge

Current Time: Apr 26, 2015 at 1:40:13 AM

Latest Report: Apr 26, 2015 at 12:50 AM


Visibility: N/A

Pressure: 29.42 "Hg

Humidity: 93%

Dew point: 43 °F

Location of VestbyLocation

Historic Weather in Vestby — Graph

°F

Vestby temperature yesterday

Maximum temperature yesterday: 48 °F (at 4:50 PM)
Minimum temperature yesterday: 43 °F (at 3:50 AM)
Average temperature yesterday: 46 °F

Past Weeks' High & Low Weather Summary

 TemperatureHumidityPressure
High68 °F (Apr 20, 12:50 PM)100% (Apr 11, 12:20 AM)30.36 "Hg (Apr 11, 12:20 AM)
Low30 °F (Apr 18, 4:20 AM)20% (Apr 23, 2:20 PM)29.39 "Hg (Apr 25, 11:50 PM)
Average47 °F60%29.92 "Hg
* Reported Apr 11 12:20 AM — Apr 26 12:20 AM, Vestby, Weather by CustomWeather, © 2015

Note: Actual official high and low records may vary slightly from our data, if they occured in-between our weather recording intervals... More about our weather records

Advertising

Vestby weather history for previous 24 hours

 ConditionsComfort  
Time TempWeatherWind HumidityBarometerVisibility
12:20 AM
Sun, Apr 26
46 °FLow clouds.14 mph87%29.42 "HgN/A
11:50 PM
Sat, Apr 25
46 °FPassing clouds.15 mph93%29.39 "Hg5 mi
10:50 PM46 °FPassing clouds.17 mph93%29.42 "Hg3 mi
10:20 PM46 °FFog.16 mph93%29.42 "Hg2 mi
9:50 PM46 °FFog.15 mph100%29.42 "Hg2 mi
9:20 PM46 °FFog.17 mph100%29.42 "Hg2 mi
8:50 PM46 °FFog.15 mph100%29.42 "Hg1 mi
8:20 PM46 °FFog.15 mph100%29.42 "Hg1 mi
7:50 PM46 °FFog.18 mph100%29.42 "Hg1 mi
7:20 PM46 °FFog.17 mph100%29.42 "Hg1 mi
6:50 PM46 °FDrizzle. Fog.14 mph100%29.42 "Hg1 mi
6:20 PM48 °FFog.15 mph94%29.45 "Hg1 mi
5:50 PM48 °FFog.16 mph94%29.45 "Hg2 mi
5:20 PM48 °FFog.16 mph94%29.45 "Hg2 mi
4:50 PM48 °FFog.15 mph94%29.45 "Hg2 mi
4:20 PM46 °FFog.15 mph100%29.45 "Hg1 mi
3:50 PM46 °FFog.15 mph100%29.45 "Hg1 mi
3:20 PM46 °FFog.15 mph93%29.47 "Hg1 mi
2:50 PM46 °FFog.15 mph93%29.47 "Hg1 mi
2:20 PM46 °FFog.17 mph93%29.47 "Hg1 mi
1:50 PM46 °FFog.14 mph93%29.47 "Hg1 mi
1:20 PM45 °FDrizzle. Fog.15 mph93%29.50 "Hg1 mi
12:50 PM45 °FLight rain. Fog.13 mph93%29.50 "Hg1 mi
12:20 PM45 °FLight rain. Fog.16 mph93%29.50 "Hg3 mi
11:50 AM45 °FLight rain. Fog.15 mph93%29.50 "Hg3 mi
11:20 AM45 °FLight rain. Fog.14 mph93%29.50 "Hg3 mi
10:50 AM45 °FLight rain. Fog.14 mph93%29.50 "Hg3 mi
10:20 AM45 °FLight rain. Partly sunny.12 mph93%29.53 "Hg6 mi
9:50 AM45 °FLight rain. Partly sunny.13 mph93%29.50 "HgN/A
9:20 AM45 °FPartly sunny.12 mph93%29.53 "HgN/A
8:50 AM45 °FPartly sunny.12 mph93%29.53 "HgN/A
8:20 AM45 °FPartly sunny.10 mph93%29.53 "HgN/A
7:50 AM45 °FPartly sunny.12 mph93%29.53 "HgN/A
7:20 AM45 °FPartly sunny.9 mph93%29.53 "HgN/A
6:50 AM45 °FPartly sunny.12 mph93%29.53 "HgN/A
6:20 AM45 °FLow clouds.10 mph93%29.56 "HgN/A
5:50 AM45 °FLow clouds.9 mph93%29.56 "HgN/A
5:20 AM45 °FLow clouds.12 mph87%29.56 "HgN/A
4:50 AM45 °FLow clouds.12 mph87%29.56 "HgN/A
4:20 AM45 °FLow clouds.12 mph93%29.56 "HgN/A
3:50 AM43 °FDrizzle. Low clouds.10 mph100%29.56 "Hg2 mi
3:20 AM45 °FMostly cloudy.13 mph87%29.59 "Hg3 mi
2:50 AM45 °FMostly cloudy.9 mph87%29.59 "HgN/A
2:20 AM45 °FOvercast.13 mph87%29.59 "HgN/A
1:20 AM45 °FMostly cloudy.14 mph87%29.59 "HgN/A
Weather by CustomWeather, © 2015

See weather overviewHow to use our weather pages